Temp
80 91 94 91 78 78 76 78 83 81 81 87 86 85 85 87 83 79 97 98 98 97 94 83 75 75 76 77 76 76 76 76 76 76 76 76 76 76 76 76 77 78 78 78 78 78 78 77 75
91 90 92 89 74 71 76 85 78 84 86 86 87 87 86 84 93 95 96 97 98 98 94 91 74 75 75 76 76 76 77 76 76 76 76 76 76 76 76 76 76 77 78 78 78 78 78 75 74
87 88 84 79 74 70 74 84 83 82 83 84 84 89 86 85 93 95 100 97 98 96 94 92 74 74 75 75 76 76 76 76 76 76 76 76 76 76 76 75 76 76 78 78 78 78 76 73 72
89 87 83 71 70 77 79 83 81 81 85 85 85 83 89 96 94 97 99 98 96 96 95 78 72 73 74 75 75 76 75 75 75 75 76 76 76 76 76 75 76 76 77 78 78 76 73 72 72
89 83 71 69 71 78 83 82 80 81 84 84 85 81 85 95 101 96 95 98 95 94 93 85 71 73 74 75 75 75 74 74 74 75 75 76 76 76 75 74 75 76 76 76 75 74 72 72 71
79 79 68 67 72 78 79 80 80 81 83 84 83 81 83 97 95 96 92 95 95 91 89 87 74 72 73 74 74 74 74 74 74 74 75 75 75 74 74 74 74 75 75 74 73 72 72 71 71
73 74 68 70 71 74 77 81 76 78 80 81 88 78 87 94 92 92 91 90 89 89 87 86 80 78 71 72 72 72 72 73 73 73 74 74 73 73 74 74 74 74 73 73 72 72 71 71 70
77 74 67 70 69 69 79 79 81 79 78 87 87 77 81 89 90 91 91 87 86 82 82 78 81 80 81 78 71 72 72 72 72 73 73 72 73 72 73 72 73 73 72 72 72 71 70 70 69
78 66 65 69 70 74 81 75 79 82 78 81 85 85 87 89 89 91 89 87 85 81 78 77 79 81 81 80 77 72 72 72 72 74 72 72 81 80 78 77 71 72 71 71 71 70 69 69 68
70 66 68 76 77 74 76 76 76 75 76 78 80 86 89 90 90 88 89 89 86 80 78 79 79 83 81 83 77 77 77 77 82 81 78 82 84 84 84 77 70 70 70 70 70 69 68 72 82
70 63 72 74 76 76 74 74 79 74 70 75 75 81 86 88 88 88 89 91 90 88 84 83 78 80 81 78 76 81 76 78 85 83 80 83 84 84 85 79 77 78 73 79 76 75 82 84 85
63 70 71 73 74 73 71 75 72 74 73 80 80 82 84 85 85 87 89 91 92 91 88 85 82 79 79 78 78 85 82 81 79 83 80 83 84 83 83 78 80 80 81 81 82 81 83 83 84
64 68 71 72 72 72 72 69 69 70 77 81 81 81 81 83 86 89 91 92 93 92 89 87 85 79 80 77 74 85 85 85 85 82 82 85 84 82 82 81 82 82 82 83 83 83 82 81 82
66 66 66 68 68 70 66 67 70 72 78 78 79 79 81 83 85 88 89 89 89 92 93 88 84 81 79 79 73 83 85 85 84 83 83 83 85 83 82 81 82 81 82 83 84 82 81 81 81
63 55 61 63 65 66 69 63 66 75 78 76 78 81 82 83 85 85 88 88 89 89 94 88 83 82 78 80 75 79 85 85 85 83 82 82 84 82 82 82 81 81 79 81 82 81 81 81 81
56 58 50 63 67 68 65 55 71 79 77 75 78 79 81 82 84 86 87 88 90 90 91 91 86 82 80 79 78 78 83 84 84 84 84 82 83 83 82 83 81 81 78 80 80 79 79 80 80
56 47 52 57 67 66 64 58 69 74 72 69 74 76 78 81 84 85 87 88 89 87 87 91 86 83 80 80 80 77 78 82 84 85 85 82 82 83 83 83 82 78 76 78 79 77 77 77 78
49 50 54 54 62 61 58 56 63 69 69 69 70 72 74 77 81 85 87 89 90 88 86 88 89 83 81 80 77 74 75 78 82 84 85 83 83 83 83 84 82 74 74 74 76 72 74 79 79
50 48 47 54 60 56 54 55 60 65 67 67 69 71 72 74 80 84 84 86 87 87 86 86 88 83 83 77 73 71 70 74 77 84 84 83 82 82 82 83 77 74 72 70 71 71 70 73 78
47 44 45 51 56 54 52 51 58 62 64 66 67 69 72 74 77 79 83 84 84 85 84 85 87 86 83 80 80 77 77 76 76 79 84 83 81 81 81 79 72 73 70 67 67 69 72 75 77
45 42 43 43 51 53 49 47 53 60 63 65 68 70 72 72 73 75 79 81 83 83 84 85 85 86 83 82 81 78 79 77 73 75 77 80 81 78 78 76 71 71 69 66 65 69 71 70 74
38 48 46 43 41 34 49 28 45 53 57 61 64 67 69 72 75 76 77 79 82 83 85 85 86 86 84 82 82 76 75 72 76 77 76 77 77 76 75 72 69 69 68 66 66 66 69 72 71
41 48 45 44 39 36 38 33 42 54 54 59 64 65 61 63 66 67 76 80 83 85 84 83 84 85 85 81 83 81 78 79 80 79 75 73 73 72 72 70 69 68 69 68 67 67 67 71 74
50 46 45 45 41 27 36 37 40 46 50 56 59 57 57 58 61 64 67 69 72 75 76 82 81 83 83 81 79 79 78 79 79 79 77 73 71 70 70 69 68 68 68 68 68 67 66 69 72
46 39 28 28 28 28 47 42 38 37 45 49 47 46 48 49 50 52 56 60 61 63 67 73 79 81 82 81 77 79 79 77 79 79 79 75 71 68 68 68 67 67 68 69 69 67 66 68 70
40 36 26 20 26 32 45 34 29 36 37 38 40 40 40 40 42 44 46 47 50 51 55 63 69 77 80 79 77 79 81 81 79 79 80 78 74 70 69 68 67 67 68 67 67 66 66 67 69
36 31 39 28 35 30 39 34 38 38 36 36 35 37 36 38 39 40 43 44 46 47 47 50 52 53 57 65 76 77 79 78 76 78 77 78 75 70 69 68 67 67 67 67 66 65 65 66 67
38 41 29 32 22 22 30 29 26 30 31 33 33 33 35 36 36 38 39 42 45 45 46 47 49 49 49 51 54 59 71 76 76 76 76 76 72 70 68 67 67 66 66 66 65 64 64 64 64
32 31 31 30 28 24 25 24 31 30 31 31 32 32 33 33 33 36 38 40 42 45 45 45 46 47 47 48 49 51 53 55 56 62 71 75 73 70 68 67 67 66 65 65 64 64 63 62 63
40 29 30 25 26 30 28 23 32 32 32 33 32 32 33 32 34 35 38 40 40 41 43 44 45 46 46 48 48 48 49 50 51 53 54 54 55 60 68 68 66 66 65 64 63 63 62 61 61
MSLP
1013.95 1013.06 1012.39 1010.99 1009.61 1007.57 1005.23 1004.76 1005.32 1005.16 1005.49 1005.86 1006.29 1005.99 1005.37 1005.07 1004.43 1004.28 1005.60 1006.05 1006.39 1006.75 1007.56 1008.91 1009.43 1009.76 1010.32 1010.81 1011.42 1011.95 1012.45 1012.76 1013.40 1013.73 1014.13 1014.45 1015.00 1015.39 1015.61 1016.05 1016.29 1016.55 1016.64 1016.88 1017.04 1017.15 1017.42 1017.86 1018.14
1013.09 1012.81 1011.79 1010.38 1008.59 1006.03 1004.62 1004.16 1005.09 1005.03 1005.61 1006.32 1006.24 1005.90 1005.47 1004.88 1005.01 1004.77 1005.12 1006.05 1006.46 1006.89 1007.60 1008.31 1009.39 1009.72 1010.27 1010.80 1011.46 1012.07 1012.61 1013.05 1013.44 1013.82 1014.19 1014.57 1014.91 1015.47 1015.73 1016.19 1016.45 1016.79 1016.99 1017.26 1017.37 1017.51 1017.76 1018.25 1018.57
1013.21 1012.61 1010.91 1009.46 1007.88 1005.74 1004.70 1004.50 1005.09 1005.95 1006.59 1006.36 1006.05 1005.85 1005.64 1005.02 1005.30 1005.20 1005.24 1006.10 1006.46 1006.99 1007.65 1008.11 1009.55 1009.85 1010.24 1010.83 1011.36 1012.06 1012.61 1013.06 1013.51 1014.00 1014.17 1014.67 1015.09 1015.46 1015.89 1016.37 1016.72 1017.08 1017.31 1017.54 1017.68 1017.86 1018.20 1018.54 1018.89
1012.70 1011.79 1011.24 1009.44 1006.93 1006.21 1005.49 1005.29 1006.10 1006.31 1006.27 1006.60 1006.34 1005.65 1005.87 1005.51 1005.38 1005.54 1006.07 1006.38 1006.72 1007.13 1007.47 1008.76 1009.60 1010.00 1010.23 1010.63 1011.28 1011.98 1012.62 1013.04 1013.40 1014.04 1014.29 1014.72 1015.16 1015.59 1016.05 1016.52 1016.91 1017.31 1017.48 1017.68 1018.01 1018.33 1018.65 1018.87 1019.27
1012.36 1011.35 1009.68 1008.15 1006.96 1006.35 1005.89 1006.38 1006.68 1006.30 1006.14 1006.49 1006.42 1005.83 1005.55 1005.45 1005.39 1005.91 1006.20 1006.32 1006.74 1007.35 1007.83 1008.94 1009.72 1009.96 1010.41 1010.61 1011.13 1011.66 1012.57 1013.02 1013.39 1013.94 1014.36 1014.71 1015.12 1015.63 1016.21 1016.65 1017.10 1017.46 1017.70 1017.99 1018.42 1018.70 1019.01 1019.25 1019.66
1011.32 1010.94 1008.87 1007.17 1006.42 1006.36 1006.74 1007.03 1006.96 1006.37 1006.34 1006.16 1006.25 1006.04 1005.79 1005.19 1005.57 1005.74 1006.42 1006.18 1006.82 1007.59 1008.05 1008.77 1009.81 1010.16 1010.39 1010.80 1010.99 1011.60 1012.31 1012.88 1013.31 1014.01 1014.42 1014.81 1015.24 1015.76 1016.33 1016.73 1017.21 1017.55 1017.97 1018.29 1018.79 1019.05 1019.31 1019.61 1019.96
1011.07 1009.64 1008.30 1007.29 1006.49 1005.95 1006.47 1007.45 1007.06 1006.64 1006.31 1005.73 1005.71 1005.64 1005.37 1005.03 1005.96 1006.29 1006.68 1006.81 1007.24 1007.74 1008.31 1008.63 1009.68 1010.23 1010.70 1010.92 1011.20 1011.52 1012.12 1012.85 1013.16 1013.78 1014.49 1014.87 1015.35 1015.85 1016.44 1016.88 1017.33 1017.73 1018.26 1018.60 1019.09 1019.42 1019.63 1019.99 1020.24
1010.88 1009.66 1008.13 1007.28 1006.20 1005.46 1006.45 1006.76 1007.05 1007.04 1006.18 1006.30 1006.30 1005.38 1005.01 1005.21 1006.39 1006.46 1006.70 1007.21 1007.46 1008.03 1008.58 1009.22 1009.31 1009.83 1010.15 1010.85 1011.33 1011.65 1012.02 1012.80 1013.29 1013.62 1014.35 1014.93 1015.57 1016.03 1016.54 1017.09 1017.45 1017.93 1018.44 1018.85 1019.37 1019.71 1020.00 1020.27 1020.67
1011.47 1009.70 1007.20 1006.52 1006.01 1005.33 1006.26 1006.76 1007.12 1007.31 1006.79 1006.41 1005.91 1005.56 1005.60 1006.30 1006.46 1006.11 1006.34 1006.91 1007.45 1008.07 1008.70 1009.27 1009.39 1009.42 1009.81 1010.37 1011.27 1011.81 1012.20 1012.66 1013.36 1013.75 1014.30 1015.07 1015.53 1016.10 1016.72 1016.91 1017.60 1018.16 1018.64 1019.04 1019.55 1020.00 1020.30 1020.60 1021.05
1010.73 1008.56 1007.01 1006.63 1006.21 1005.83 1006.25 1006.67 1007.03 1007.13 1006.60 1006.06 1005.88 1005.80 1005.82 1005.84 1005.74 1005.63 1005.61 1005.66 1006.50 1007.55 1008.31 1008.76 1009.09 1009.20 1009.39 1009.87 1010.76 1011.38 1012.04 1012.69 1013.02 1013.56 1014.38 1014.57 1014.76 1015.42 1016.10 1016.94 1017.81 1018.39 1018.88 1019.30 1019.84 1020.27 1020.57 1020.72 1020.66
1009.52 1008.02 1007.52 1006.98 1006.76 1006.64 1006.35 1006.59 1006.73 1006.52 1005.85 1006.09 1005.89 1005.89 1005.57 1005.22 1005.25 1005.19 1005.15 1004.94 1005.12 1006.29 1007.45 1008.18 1008.91 1009.15 1009.33 1009.92 1010.67 1010.72 1011.62 1012.17 1012.33 1012.98 1013.69 1013.87 1014.32 1015.05 1015.76 1016.85 1017.88 1018.44 1019.18 1019.37 1019.97 1020.50 1020.15 1019.74 1019.97
1009.74 1008.70 1008.01 1007.47 1007.46 1007.11 1006.49 1006.31 1005.76 1005.90 1005.34 1006.06 1006.04 1005.77 1005.33 1004.88 1004.62 1004.38 1004.23 1004.34 1004.34 1004.92 1005.94 1007.01 1007.93 1008.54 1009.04 1009.66 1010.21 1009.62 1010.84 1011.37 1011.83 1012.35 1013.20 1013.19 1013.75 1014.33 1015.02 1016.56 1016.95 1017.60 1018.44 1018.63 1019.06 1019.56 1019.45 1019.76 1019.87
1009.80 1008.64 1008.28 1007.98 1007.66 1007.24 1006.89 1005.50 1005.15 1004.86 1005.45 1005.61 1005.33 1005.07 1004.63 1004.18 1003.90 1003.68 1003.57 1003.64 1003.74 1003.77 1004.69 1005.70 1006.94 1007.84 1008.19 1008.95 1009.65 1009.14 1009.62 1010.32 1010.94 1011.95 1012.45 1012.58 1013.16 1013.82 1014.67 1015.66 1016.23 1016.82 1017.67 1018.07 1018.30 1018.85 1019.39 1019.80 1020.09
1009.96 1009.16 1008.56 1008.27 1007.68 1007.08 1006.58 1004.07 1005.10 1004.74 1004.65 1003.96 1003.91 1003.54 1003.36 1003.00 1002.81 1002.62 1002.81 1002.75 1002.83 1003.03 1003.17 1004.56 1005.93 1006.99 1007.54 1008.00 1008.85 1008.56 1008.90 1009.63 1010.63 1011.49 1011.76 1011.98 1012.61 1013.31 1014.13 1014.91 1015.55 1016.29 1017.05 1017.56 1017.85 1018.50 1019.25 1019.56 1019.98
1010.46 1009.33 1008.37 1007.96 1007.28 1006.10 1006.33 1001.38 1003.43 1003.12 1002.93 1002.33 1002.34 1001.89 1001.87 1001.72 1001.90 1001.29 1001.60 1001.96 1002.23 1002.57 1002.41 1003.28 1004.95 1005.96 1006.80 1007.00 1008.22 1008.25 1008.29 1008.98 1009.84 1010.86 1011.46 1011.51 1011.98 1012.68 1013.30 1014.17 1014.90 1015.74 1016.83 1017.20 1017.86 1018.64 1019.09 1019.35 1019.79
1011.01 1009.67 1007.68 1006.30 1006.39 1005.82 1005.88 999.50 1001.45 1001.76 1001.75 1001.34 1000.96 1000.78 1000.34 1000.57 1000.77 1000.93 1000.63 1001.03 1001.33 1001.57 1001.56 1002.20 1003.73 1004.93 1005.62 1006.37 1007.20 1007.60 1007.88 1008.42 1009.02 1009.96 1010.78 1011.21 1011.28 1012.04 1012.68 1013.35 1014.16 1015.07 1016.33 1016.88 1017.40 1018.19 1018.72 1019.13 1019.52
1010.03 1007.96 1007.32 1003.77 1006.35 1005.41 1005.11 1001.08 998.71 1002.22 1001.86 1001.10 1001.07 1000.52 1000.14 999.62 999.51 999.89 999.95 1000.00 1000.49 1001.08 1000.81 1001.00 1002.64 1003.78 1004.71 1005.28 1006.26 1006.90 1007.27 1007.74 1008.14 1009.11 1009.91 1010.66 1010.97 1011.27 1011.89 1012.48 1013.34 1014.59 1015.97 1016.46 1017.03 1017.88 1018.47 1018.90 1019.35
1009.38 1008.44 1006.64 1005.05 1005.61 1005.83 1004.87 1002.77 1001.02 1001.66 1002.09 1000.76 1000.82 1000.69 999.98 999.03 998.59 998.84 999.08 998.73 999.18 999.99 1000.46 1000.31 1000.75 1002.57 1003.70 1004.43 1005.51 1006.34 1006.85 1007.44 1007.26 1008.16 1008.72 1009.67 1010.37 1010.90 1011.22 1011.87 1012.84 1014.25 1015.54 1016.38 1016.96 1017.86 1018.47 1018.49 1019.10
1010.92 1010.24 1008.19 1006.77 1006.54 1006.83 1004.91 1003.45 1002.51 1000.24 1001.41 999.59 999.50 999.51 999.26 998.87 998.32 998.02 998.40 998.28 998.21 998.90 999.40 999.65 999.63 1001.20 1002.44 1003.40 1004.34 1005.25 1005.67 1006.37 1006.57 1006.74 1007.74 1008.51 1009.48 1010.16 1010.67 1011.34 1012.68 1013.77 1014.69 1015.59 1016.47 1017.41 1018.27 1018.62 1018.89
1011.79 1010.47 1009.02 1007.74 1007.42 1007.06 1005.76 1003.98 1001.81 1001.36 999.40 999.98 998.75 998.36 997.90 997.79 997.75 997.79 997.35 997.56 997.52 997.49 998.46 998.73 998.94 999.68 1001.06 1002.22 1002.90 1003.69 1004.34 1005.12 1005.63 1005.43 1006.48 1007.49 1008.68 1009.39 1010.07 1010.76 1012.03 1013.03 1014.16 1015.19 1016.09 1016.68 1017.34 1018.09 1018.46
1011.83 1011.14 1009.69 1009.03 1007.68 1006.99 1006.12 1003.43 1001.96 1000.15 999.35 998.98 998.56 997.86 997.01 996.81 996.66 997.01 996.63 996.43 996.53 996.54 996.89 997.63 998.05 998.58 999.63 1000.91 1002.04 1003.02 1003.70 1004.74 1005.52 1005.73 1006.16 1006.76 1007.58 1008.52 1009.45 1010.54 1011.51 1012.35 1013.42 1014.48 1015.26 1016.00 1016.56 1017.06 1017.73
1011.48 1011.35 1010.32 1009.37 1008.71 1006.77 1006.29 1003.54 1002.47 999.85 998.62 998.45 997.67 996.61 996.04 995.67 995.26 995.67 995.73 995.38 995.42 995.43 995.99 996.71 997.01 997.52 998.41 999.85 1000.22 1001.40 1002.02 1002.79 1003.48 1003.97 1004.87 1005.70 1006.77 1007.80 1008.61 1009.88 1010.86 1011.75 1012.71 1013.90 1014.80 1015.22 1016.03 1016.51 1016.58
1011.73 1011.33 1010.27 1009.48 1008.39 1007.86 1004.48 1005.01 1001.10 1000.23 998.54 997.23 996.46 996.66 997.95 997.87 997.02 996.45 994.73 994.53 994.11 994.50 994.62 995.70 996.09 996.69 997.26 998.42 998.84 999.65 1000.73 1001.66 1002.32 1003.06 1004.20 1005.04 1006.03 1006.82 1007.85 1008.88 1009.89 1010.71 1011.64 1012.50 1013.48 1014.84 1015.61 1015.49 1015.67
1011.82 1010.81 1009.70 1008.44 1007.55 1006.72 1004.50 1004.39 1001.17 1001.49 1000.33 999.03 998.92 999.73 999.95 999.78 999.22 998.56 997.67 996.92 996.34 995.92 995.24 994.65 995.68 996.08 996.83 997.65 998.40 998.92 999.56 1000.28 1001.10 1001.96 1002.89 1004.04 1004.96 1005.73 1006.63 1007.68 1008.59 1009.44 1010.42 1011.53 1012.36 1013.45 1014.45 1014.69 1014.87
1011.67 1011.01 1009.34 1007.28 1006.32 1004.63 1003.12 1003.15 1005.01 1005.27 1004.08 1003.15 1002.98 1003.65 1003.58 1003.01 1002.57 1001.89 1000.89 999.83 999.24 998.32 997.41 996.48 995.54 995.81 996.46 997.15 997.69 998.30 998.85 999.56 999.93 1000.50 1001.38 1002.55 1003.66 1004.56 1005.36 1006.35 1007.42 1008.44 1009.14 1010.03 1011.14 1012.17 1013.33 1013.75 1013.83
1012.30 1011.89 1010.96 1008.81 1006.66 1004.75 1004.01 1004.21 1007.74 1008.11 1007.75 1007.33 1006.93 1006.39 1006.30 1005.82 1005.59 1005.07 1003.76 1002.73 1001.70 1000.76 999.77 998.63 997.52 996.69 996.42 996.83 997.28 997.66 998.18 998.52 999.19 999.48 1000.12 1001.12 1002.16 1003.09 1004.01 1005.09 1005.90 1007.18 1008.22 1009.19 1009.98 1010.91 1011.95 1012.93 1013.26
1013.33 1012.69 1012.40 1010.55 1007.82 1006.08 1004.69 1007.11 1007.49 1009.76 1009.92 1009.77 1009.59 1008.66 1008.28 1007.83 1007.67 1006.54 1004.87 1004.37 1003.53 1002.29 1001.69 1001.03 1000.31 999.93 999.33 998.53 997.38 997.48 997.55 998.02 998.48 998.76 999.43 1000.03 1001.20 1002.19 1003.13 1004.04 1004.98 1006.06 1007.02 1008.00 1008.98 1009.77 1010.68 1011.47 1012.01
1014.43 1013.84 1012.45 1011.10 1008.86 1007.03 1006.60 1008.54 1011.14 1011.86 1012.11 1011.96 1011.34 1010.54 1010.18 1009.74 1009.04 1008.51 1006.64 1006.57 1004.91 1004.00 1003.58 1002.70 1001.88 1001.53 1000.98 1000.39 999.68 998.78 998.05 998.24 998.42 998.57 998.86 999.33 1000.53 1001.37 1002.21 1003.19 1004.10 1005.43 1006.22 1006.82 1007.75 1008.70 1009.53 1010.43 1010.99
1014.39 1013.63 1013.41 1012.04 1010.70 1008.93 1008.46 1012.14 1014.01 1014.10 1014.15 1013.85 1013.07 1012.30 1011.86 1011.17 1010.68 1009.70 1008.78 1007.85 1006.18 1005.15 1004.48 1004.15 1003.51 1002.99 1002.36 1002.37 1001.64 1000.86 1000.50 1000.16 999.85 999.77 999.58 999.08 999.74 1000.75 1001.56 1002.38 1003.35 1004.30 1005.26 1006.08 1006.89 1007.63 1008.43 1009.34 1010.15
1015.38 1015.01 1013.98 1012.07 1010.15 1009.76 1011.01 1014.65 1015.63 1015.58 1015.34 1014.92 1014.28 1013.48 1012.85 1012.40 1011.89 1011.58 1010.17 1008.73 1007.44 1006.39 1006.06 1005.69 1005.25 1004.71 1004.52 1004.32 1003.44 1003.19 1002.57 1001.80 1001.69 1001.81 1001.63 1001.42 1001.33 1000.91 1001.02 1001.86 1002.70 1003.44 1004.36 1005.23 1006.03 1006.95 1007.61 1008.32 1009.13
Wind_Speed
7 5 5 7 8 7 12 5 6 5 5 3 2 6 7 7 4 4 3 9 7 16 17 19 15 17 17 19 20 20 20 21 20 20 21 20 19 16 15 15 15 16 17 18 18 19 18 17 15
4 5 5 3 9 12 11 6 11 7 2 3 6 7 8 8 4 5 4 12 12 15 16 19 14 16 16 18 19 20 20 20 21 20 21 21 21 17 16 15 15 16 17 17 19 19 19 17 13
5 5 7 5 10 15 14 13 7 2 2 5 5 5 4 3 1 6 5 12 13 14 15 16 15 15 17 17 20 21 21 21 21 20 22 21 21 19 17 14 14 16 17 17 18 18 18 15 13
4 6 5 11 18 17 16 11 2 7 5 5 4 9 2 5 5 2 6 10 11 13 14 17 14 15 18 19 20 20 21 20 21 21 22 22 21 20 17 15 15 16 17 17 17 18 15 15 13
5 5 12 15 21 19 18 15 16 19 16 11 5 14 12 17 13 4 5 10 11 10 10 14 13 15 17 20 21 21 20 20 21 21 21 22 22 20 17 15 14 15 16 17 17 16 15 15 14
7 5 13 16 20 17 18 19 20 22 19 19 15 15 14 7 5 6 3 10 10 9 9 12 13 12 16 19 20 20 20 21 21 20 20 21 20 19 17 16 14 14 15 16 15 15 15 15 14
12 13 19 24 23 24 20 14 20 21 20 20 17 16 12 12 7 3 2 7 9 8 8 10 13 13 9 14 16 18 19 20 21 20 19 19 18 17 18 16 15 14 15 16 15 14 15 15 14
9 10 24 21 20 25 17 17 21 22 19 13 8 7 10 7 6 3 3 7 9 8 7 8 11 14 15 15 14 17 18 18 20 20 18 16 16 16 16 14 14 16 17 17 15 14 14 15 13
7 11 18 24 25 25 17 15 9 7 14 12 9 11 2 6 4 5 3 7 9 7 8 9 10 13 14 15 15 15 17 19 18 19 18 15 14 17 18 16 15 16 16 16 15 13 13 14 12
13 17 25 23 22 22 20 20 19 19 18 18 16 15 11 10 11 11 11 10 12 11 10 10 12 12 14 12 16 15 15 14 18 18 19 15 16 16 16 14 13 15 15 15 13 14 14 14 11
11 23 24 24 23 23 25 24 21 21 25 21 21 19 19 19 18 16 15 14 13 15 11 13 12 12 14 11 10 10 7 9 14 20 17 15 13 13 12 9 10 12 14 12 13 12 12 13 10
24 25 24 26 24 26 28 27 30 28 28 23 23 23 25 25 22 21 19 18 14 14 16 16 17 14 15 11 12 14 12 12 11 15 19 13 10 13 12 9 13 12 12 15 14 10 11 10 11
24 26 25 26 25 26 26 31 31 30 24 24 26 27 27 28 27 24 22 20 19 17 17 17 18 15 16 16 10 15 14 14 16 15 18 14 14 13 13 13 12 12 14 14 13 12 10 11 10
20 29 30 28 30 29 30 39 31 28 29 31 28 29 29 30 30 27 23 22 22 21 19 19 20 19 17 17 16 14 13 15 15 13 16 18 14 13 14 14 14 13 12 13 12 11 11 10 10
16 24 24 23 25 28 25 46 32 31 32 33 33 31 28 29 29 28 23 23 22 20 22 20 21 21 20 22 16 14 14 15 15 14 17 20 18 17 16 14 13 12 11 15 13 12 11 10 10
23 28 27 19 19 20 17 45 21 22 23 25 24 22 24 25 27 26 24 25 22 23 23 21 20 23 23 21 17 13 14 14 15 14 15 21 21 19 16 14 13 13 12 13 13 12 12 11 10
15 23 25 37 19 24 27 42 39 22 25 29 28 29 27 24 23 22 24 22 22 20 19 22 23 24 25 22 17 15 16 14 14 15 15 20 21 21 16 14 13 15 13 13 12 12 11 10 10
19 23 28 31 18 22 29 35 38 31 30 32 29 27 27 28 30 25 25 23 18 20 20 23 19 24 24 17 16 12 12 13 13 15 16 21 17 21 18 14 14 15 14 13 13 13 9 11 10
22 23 31 29 28 25 31 36 36 41 33 37 33 32 31 29 26 24 25 24 22 20 21 24 21 23 18 16 15 13 14 14 14 16 20 21 19 21 19 14 15 15 15 14 13 11 12 10 11
23 26 28 30 26 24 26 33 40 36 38 33 35 32 31 32 29 31 24 24 25 21 22 23 22 24 22 16 16 14 16 15 15 15 18 21 20 21 19 17 15 18 13 15 14 15 11 12 13
20 23 27 29 27 27 28 34 33 35 35 34 33 32 32 34 34 34 31 27 24 25 22 22 24 25 24 23 15 14 14 12 12 13 13 17 23 22 21 20 16 17 14 13 15 14 18 13 13
22 19 25 27 23 23 24 23 34 37 34 30 32 25 27 29 31 30 33 30 30 25 23 23 24 25 23 24 21 23 16 15 14 15 15 16 21 21 21 19 19 18 13 15 15 15 16 14 16
23 19 21 22 23 21 35 17 32 28 28 28 24 14 12 16 15 16 16 24 27 26 22 20 22 24 23 23 22 19 22 16 14 14 19 18 18 21 22 21 22 21 15 18 18 18 17 16 14
18 17 20 24 19 17 28 21 20 18 24 24 21 14 14 14 14 13 10 8 10 11 9 13 21 21 21 22 25 21 24 20 16 18 15 15 13 16 23 22 21 22 21 20 18 20 20 17 15
7 16 9 7 5 8 14 17 15 21 23 17 14 17 18 19 19 19 18 15 13 13 11 6 12 19 20 21 21 24 24 24 22 21 18 18 15 13 18 23 22 19 22 23 20 19 19 20 18
17 7 8 9 13 20 22 6 9 17 23 20 18 17 16 17 16 16 18 18 18 18 16 12 12 15 18 21 19 20 24 17 18 20 16 15 15 14 19 21 21 23 23 20 21 17 18 18 17
10 11 20 9 17 13 4 10 18 20 20 17 14 14 15 14 13 18 19 17 16 19 20 17 16 16 16 14 12 17 19 21 19 20 20 15 17 13 16 22 21 22 23 22 21 16 20 20 20
14 12 9 5 7 7 9 10 11 15 17 16 16 17 16 15 18 18 20 17 16 17 17 19 19 19 19 18 15 12 9 19 18 18 20 20 15 15 15 18 20 20 21 22 21 18 18 18 15
15 10 6 7 6 5 4 9 12 15 14 14 15 16 15 16 14 17 18 19 19 19 20 20 20 21 22 18 17 17 16 16 16 5 10 17 16 14 13 17 18 19 20 20 19 19 18 20 19
13 12 15 7 4 1 9 9 11 11 11 11 14 14 14 11 13 11 15 18 20 23 22 21 20 21 19 17 18 19 19 18 18 14 14 14 12 3 15 17 17 17 19 20 20 20 17 20 19
Wind_Direction
237 269 280 241 249 234 260 239 289 217 204 141 336 274 312 329 294 10 69 185 190 167 161 169 159 156 159 158 158 156 158 157 159 155 150 146 144 144 139 137 133 135 134 133 130 124 123 121 115
311 284 233 278 257 250 254 257 234 261 110 267 266 247 231 267 278 272 197 173 187 166 167 176 162 155 155 158 158 159 161 161 160 158 153 149 147 146 141 140 138 139 136 135 133 129 130 121 112
266 274 265 243 250 251 264 291 289 1 275 270 261 247 308 257 271 305 19 168 180 166 172 166 156 155 155 157 158 162 165 163 160 161 155 153 150 147 143 141 141 143 141 140 137 137 130 119 112
265 191 208 244 242 249 268 270 263 258 208 253 278 262 196 270 300 348 335 173 182 175 178 133 152 157 158 157 160 163 165 164 159 162 159 156 153 149 146 144 147 150 148 144 141 134 130 117 111
222 255 258 236 257 260 258 266 287 279 278 264 268 270 293 283 279 320 274 192 195 178 180 155 159 157 158 159 161 162 163 163 161 162 162 159 156 151 149 146 150 152 149 143 139 135 130 120 114
250 268 254 259 262 247 259 277 282 270 275 273 269 262 264 273 280 335 242 198 187 181 178 160 160 156 160 163 161 161 162 162 160 162 162 160 156 152 150 149 153 148 147 140 141 139 130 122 116
245 265 267 277 279 272 272 266 263 276 274 269 286 264 270 261 44 27 167 167 176 168 178 165 174 170 162 164 161 156 159 161 160 161 163 160 154 150 152 151 151 147 144 140 144 141 134 128 121
256 264 260 263 269 271 284 261 262 268 281 307 260 250 252 71 16 31 168 174 169 157 175 181 180 181 182 176 166 161 159 160 161 159 160 158 156 152 150 148 148 146 146 144 144 141 136 128 125
251 253 255 259 261 272 270 263 248 274 276 249 245 256 13 357 341 310 244 196 186 182 175 189 187 187 188 178 174 161 163 163 161 159 160 158 171 169 159 170 146 150 148 145 140 138 131 125 122
225 248 258 267 279 278 281 271 268 274 257 247 247 270 236 257 284 290 289 256 217 202 193 189 197 194 184 181 168 174 171 176 177 175 169 173 172 178 179 154 142 146 147 141 136 134 132 162 155
244 248 270 276 278 278 271 269 272 264 258 263 271 274 268 271 272 265 265 259 239 219 201 200 197 194 181 172 169 175 173 176 186 183 176 181 172 174 182 156 159 162 159 162 157 151 169 180 170
268 264 269 278 276 276 275 279 270 265 269 272 273 269 268 261 257 258 254 252 230 222 210 198 192 192 187 173 183 187 176 180 189 186 185 177 176 173 171 165 172 173 179 169 177 177 179 174 177
264 268 271 274 277 275 280 269 269 264 268 265 262 258 256 261 261 256 251 243 247 228 214 203 193 190 190 181 187 200 186 189 188 186 188 179 185 175 170 174 173 177 180 177 185 180 178 178 177
279 290 285 283 279 276 275 271 270 264 266 261 250 250 251 252 258 260 255 246 239 244 218 205 199 194 193 188 185 201 184 188 198 189 192 185 187 175 178 175 176 180 182 182 186 177 184 179 177
280 288 285 271 274 270 278 274 253 264 259 261 258 257 255 248 253 259 258 249 235 240 240 205 198 198 193 196 185 200 188 191 193 193 197 187 189 179 178 179 178 176 177 184 186 179 187 181 182
271 272 280 267 257 263 264 269 261 294 289 277 276 276 269 252 254 257 253 251 250 228 236 210 201 198 195 196 188 193 198 192 194 197 196 195 190 181 181 180 181 169 176 185 184 183 181 183 185
248 265 269 284 261 269 259 270 280 284 295 288 281 276 272 266 258 241 253 249 253 241 240 229 206 203 201 195 193 195 194 195 196 198 201 197 197 186 188 183 177 160 175 185 181 181 184 182 187
293 288 283 280 290 288 282 274 281 277 275 269 268 273 281 271 256 259 263 258 239 235 232 239 205 208 201 194 194 190 193 202 187 206 203 197 200 195 193 185 174 165 172 177 177 177 183 186 184
290 279 277 280 287 284 279 280 278 281 273 274 270 266 265 259 273 255 254 257 257 236 236 232 222 204 200 195 187 188 191 193 203 194 204 200 197 197 193 186 172 171 174 172 175 166 172 190 189
280 280 277 282 284 276 279 281 280 280 281 282 281 278 269 261 252 257 258 249 251 239 231 233 227 206 203 199 195 192 196 195 204 196 198 200 195 198 192 184 176 176 167 172 176 180 180 192 191
280 284 288 286 294 287 283 275 279 277 276 273 272 277 267 261 249 258 250 245 247 247 229 229 224 216 204 205 199 202 198 200 198 202 201 198 197 195 192 184 180 174 170 180 182 183 188 188 188
288 294 293 289 288 283 289 296 286 279 283 278 279 283 271 260 248 242 247 247 242 242 236 231 225 218 204 200 192 196 196 193 201 197 195 195 197 193 191 183 179 180 176 180 187 185 195 190 192
294 299 300 293 279 281 276 269 270 285 285 286 298 324 6 347 337 317 282 251 236 235 229 224 224 218 204 199 214 197 201 202 201 198 199 196 197 192 188 185 184 185 187 188 186 191 199 202 194
291 297 294 276 264 257 268 269 283 339 343 322 1 30 17 16 9 358 351 352 344 333 307 226 212 213 211 205 208 204 204 202 202 201 198 197 195 191 191 185 188 189 191 194 192 193 197 203 204
299 321 296 282 228 262 301 300 34 4 354 5 46 36 29 32 28 21 16 17 16 8 355 303 229 219 213 213 210 210 209 209 209 204 200 196 194 190 192 189 186 189 191 194 193 188 196 201 204
301 310 284 301 308 304 304 316 23 29 28 22 30 47 39 34 30 30 32 30 28 27 23 15 1 238 233 216 220 217 219 212 215 209 203 202 198 193 186 190 188 190 192 193 195 196 199 201 212
332 323 312 264 269 270 257 56 50 27 34 28 18 35 34 29 25 19 29 26 27 34 30 33 44 41 26 0 241 226 218 219 214 211 209 200 197 192 186 190 191 193 188 189 190 195 199 200 204
340 316 319 297 288 310 49 59 17 6 3 4 27 24 21 27 30 17 28 18 33 37 37 37 40 45 41 32 27 13 276 228 215 210 206 202 192 185 183 188 189 190 194 191 190 194 200 202 202
339 315 326 255 240 282 29 51 2 11 10 19 19 22 17 17 7 20 31 21 28 36 37 34 38 41 42 36 37 36 40 39 35 343 245 211 185 183 186 187 191 187 190 191 193 198 194 197 201
349 311 316 278 247 286 83 63 356 13 11 9 17 10 13 16 16 6 26 28 30 33 31 31 30 33 36 35 44 42 42 41 44 39 40 33 34 27 198 187 194 188 191 189 193 197 193 195 201